Weather History for Stanton, MN

Change the Weather History Date:

Tuesday, December 11, 2012

  Actual Average (KLVN) Record (KLVN)
Temperature  
Mean Temperature 12 °F -  
Max Temperature 22 °F 28 °F 53 °F (1949)
Min Temperature 3 °F 9 °F -16 °F (1977)
Degree Days  
Heating Degree Days 52    
Moisture  
Dew Point 11 °F    
Average Humidity 82    
Maximum Humidity 89    
Minimum Humidity 75    
Precipitation  
Precipitation 0.00 in - - ()
Sea Level Pressure  
Sea Level Pressure 29.87 in    
Wind  
Wind Speed 5 mph (SW)    
Max Wind Speed 9 mph    
Max Gust Speed -    
Visibility 8 miles    
Events Snow    
Averages and records for this station are not official NWS values.
T = Trace of Precipitation, MM = Missing Value Source: NWS Daily Summary

Daily Weather History Graph

Daily Weather History Graph

Search for Another Location

Airport:

Trip Planner

Search our weather history database for the weather conditions in past years. The results will help you decide how hot, cold, wet, or windy it might be!

Date:

Astronomy

Dec. 11, 2012 Rise Set
Actual Time 7:38 AM CST 4:32 PM CST
Civil Twilight 7:05 AM CST 5:05 PM CST
Nautical Twilight 6:28 AM CST 5:42 PM CST
Astronomical Twilight 5:53 AM CST 6:17 PM CST
Moon 5:32 AM CST (12/11) 3:13 PM CST (12/11)
Length of Visible Light 10h 00m
Length of Day
8h 53m
Waning Crescent, 4% of the Moon is Illuminated
Dec 11
Waning Crescent
Dec 13
New
Dec 19
First Quarter
Dec 28
Full
Jan 4
Last Quarter

Hourly Weather History & Observations

Time (CST) Temp. Windchill Dew Point Humidity Pressure Visibility Wind Dir Wind Speed Gust Speed Precip Events Conditions
12:12 AM 3.9 °F - -0.4 °F 82% 29.83 in 10.0 mi Calm Calm - N/A   Clear
12:33 AM 11.1 °F 1.7 °F 7.5 °F 85% 29.81 in 10.0 mi South 5.8 mph - N/A   Clear
12:52 AM 12.6 °F 2.2 °F 8.2 °F 83% 29.81 in 10.0 mi South 6.9 mph - N/A   Clear
1:12 AM 13.8 °F 3.7 °F 8.6 °F 80% 29.80 in 10.0 mi South 6.9 mph - N/A   Clear
1:31 AM 14.9 °F 4.0 °F 9.3 °F 79% 29.79 in 10.0 mi South 8.1 mph - N/A   Clear
1:53 AM 16.2 °F 6.5 °F 9.9 °F 76% 29.79 in 10.0 mi South 6.9 mph - N/A   Clear
2:12 AM 17.2 °F 7.8 °F 10.4 °F 75% 29.79 in 10.0 mi South 6.9 mph - N/A   Clear
2:32 AM 17.6 °F 7.3 °F 11.1 °F 76% 29.78 in 10.0 mi South 8.1 mph - N/A   Clear
2:53 AM 18.5 °F 10.4 °F 11.8 °F 75% 29.78 in 10.0 mi South 5.8 mph - N/A   Mostly Cloudy
3:12 AM 19.0 °F 11.1 °F 12.4 °F 75% 29.78 in 10.0 mi SSW 5.8 mph - N/A   Overcast
3:32 AM 17.6 °F 9.3 °F 12.4 °F 80% 29.78 in 5.0 mi SW 5.8 mph - N/A Snow Light Snow
3:53 AM 19.9 °F 10.1 °F 14.7 °F 80% 29.78 in 10.0 mi SSW 8.1 mph - N/A Snow Light Snow
4:12 AM 20.1 °F 11.3 °F 14.9 °F 80% 29.78 in 10.0 mi SSW 6.9 mph - N/A   Overcast
4:33 AM 20.3 °F 11.5 °F 14.9 °F 80% 29.78 in 10.0 mi SW 6.9 mph - N/A   Overcast
4:52 AM 19.9 °F 13.4 °F 14.9 °F 81% 29.78 in 10.0 mi SSW 4.6 mph - N/A Snow Light Snow
5:13 AM 20.3 °F 9.8 °F 15.1 °F 80% 29.78 in 10.0 mi WSW 9.2 mph - N/A   Overcast
5:32 AM 19.6 °F 8.9 °F 14.4 °F 80% 29.79 in 10.0 mi West 9.2 mph - N/A   Overcast
5:52 AM 18.1 °F 8.9 °F 13.6 °F 83% 29.79 in 10.0 mi West 6.9 mph - N/A   Mostly Cloudy
6:13 AM 16.5 °F 5.1 °F 12.0 °F 82% 29.81 in 10.0 mi West 9.2 mph - N/A   Scattered Clouds
6:32 AM 15.4 °F 5.6 °F 11.3 °F 84% 29.81 in 10.0 mi West 6.9 mph - N/A   Clear
6:53 AM 14.9 °F 7.5 °F 11.1 °F 85% 29.81 in 10.0 mi WSW 4.6 mph - N/A   Mostly Cloudy
7:12 AM 15.6 °F 8.3 °F 11.7 °F 84% 29.82 in 10.0 mi SW 4.6 mph - N/A   Overcast
7:32 AM 15.6 °F 7.0 °F 11.7 °F 84% 29.81 in 10.0 mi SSW 5.8 mph - N/A   Overcast
7:52 AM 13.8 °F 4.9 °F 9.5 °F 83% 29.81 in 10.0 mi SW 5.8 mph - N/A   Mostly Cloudy
8:13 AM 9.3 °F -2.8 °F 5.9 °F 86% 29.83 in 10.0 mi SW 8.1 mph - N/A   Clear
8:32 AM 10.8 °F 1.2 °F 7.3 °F 86% 29.83 in 10.0 mi SW 5.8 mph - N/A   Clear
8:52 AM 10.2 °F -0.6 °F 6.8 °F 86% 29.84 in 10.0 mi SW 6.9 mph - N/A   Clear
9:13 AM 13.1 °F 4.0 °F 9.5 °F 86% 29.84 in 10.0 mi SW 5.8 mph - N/A   Clear
9:32 AM 15.1 °F 6.4 °F 11.1 °F 84% 29.85 in 10.0 mi SW 5.8 mph - N/A   Clear
9:52 AM 16.7 °F 6.2 °F 11.8 °F 81% 29.85 in 10.0 mi SW 8.1 mph - N/A   Clear
10:12 AM 17.1 °F 8.7 °F 11.8 °F 80% 29.86 in 10.0 mi SW 5.8 mph - N/A   Clear
10:32 AM 17.4 °F 9.1 °F 12.0 °F 79% 29.86 in 10.0 mi WSW 5.8 mph - N/A   Clear
11:12 AM 18.1 °F 10.0 °F 12.7 °F 79% 29.86 in 10.0 mi SW 5.8 mph - N/A   Clear
11:32 AM 18.7 °F 8.6 °F 13.1 °F 79% 29.86 in 7.0 mi SW 8.1 mph - N/A   Clear
11:53 AM 19.4 °F 10.4 °F 14.0 °F 80% 29.86 in 7.0 mi SSW 6.9 mph - N/A   Scattered Clouds
12:12 PM 20.1 °F 11.3 °F 14.5 °F 79% 29.86 in 5.0 mi WSW 6.9 mph - N/A Snow Light Snow
12:32 PM 20.5 °F 10.8 °F 14.9 °F 79% 29.86 in 4.0 mi SW 8.1 mph - N/A Snow Light Snow
12:53 PM 21.0 °F 12.4 °F 15.6 °F 80% 29.86 in 3.0 mi SW 6.9 mph - N/A Snow Light Snow
1:12 PM 21.2 °F 11.7 °F 15.8 °F 80% 29.86 in 3.0 mi WSW 8.1 mph - N/A Snow Light Snow
1:32 PM 21.6 °F 12.1 °F 16.2 °F 80% 29.86 in 4.0 mi WSW 8.1 mph - N/A Snow Light Snow
1:53 PM 21.9 °F 14.5 °F 16.7 °F 80% 29.86 in 5.0 mi WSW 5.8 mph - N/A Snow Light Snow
2:12 PM 22.1 °F 13.7 °F 16.7 °F 80% 29.86 in 7.0 mi WSW 6.9 mph - N/A Snow Light Snow
2:32 PM 21.6 °F 14.0 °F 16.2 °F 80% 29.86 in 7.0 mi WSW 5.8 mph - N/A Snow Light Snow
2:53 PM 21.7 °F 15.5 °F 15.8 °F 78% 29.87 in 5.0 mi WSW 4.6 mph - N/A Snow Light Snow
3:12 PM 21.2 °F 14.9 °F 15.3 °F 78% 29.87 in 7.0 mi WSW 4.6 mph - N/A Snow Light Snow
3:33 PM 20.8 °F 14.4 °F 15.6 °F 80% 29.88 in 7.0 mi WSW 4.6 mph - N/A Snow Light Snow
3:52 PM 20.8 °F 14.4 °F 15.6 °F 80% 29.89 in 10.0 mi WSW 4.6 mph - N/A   Mostly Cloudy
4:13 PM 20.5 °F 14.0 °F 15.8 °F 82% 29.90 in 7.0 mi SW 4.6 mph - N/A Snow Light Snow
4:32 PM 19.4 °F 12.8 °F 15.3 °F 84% 29.91 in 10.0 mi WSW 4.6 mph - N/A Snow Light Snow
4:52 PM 20.3 °F 15.4 °F 15.8 °F 83% 29.91 in 10.0 mi WSW 3.5 mph - N/A   Mostly Cloudy
5:13 PM 18.9 °F 12.1 °F 14.5 °F 83% 29.92 in 10.0 mi WSW 4.6 mph - N/A   Mostly Cloudy
5:32 PM 16.7 °F 11.2 °F 13.3 °F 86% 29.92 in 10.0 mi SW 3.5 mph - N/A   Scattered Clouds
5:52 PM 16.2 °F 9.0 °F 13.1 °F 88% 29.92 in 10.0 mi SSW 4.6 mph - N/A   Clear
6:13 PM 12.9 °F 3.8 °F 9.7 °F 87% 29.93 in 7.0 mi SSW 5.8 mph - N/A   Clear
6:32 PM 11.5 °F 3.5 °F 8.4 °F 87% 29.94 in 5.0 mi SSW 4.6 mph - N/A   Clear
6:52 PM 12.7 °F 5.0 °F 10.0 °F 89% 29.94 in 5.0 mi South 4.6 mph - N/A   Clear
7:12 PM 10.6 °F 2.5 °F 7.0 °F 85% 29.94 in 5.0 mi South 4.6 mph - N/A   Clear
7:33 PM 9.3 °F 2.8 °F 5.7 °F 85% 29.95 in 7.0 mi SSW 3.5 mph - N/A   Clear
7:52 PM 7.5 °F - 4.5 °F 87% 29.95 in 7.0 mi Calm Calm - N/A   Clear
8:12 PM 9.1 °F 2.6 °F 5.5 °F 85% 29.97 in 3.0 mi SSW 3.5 mph - N/A   Clear
8:33 PM 5.7 °F - 1.8 °F 84% 29.97 in 7.0 mi Calm Calm - N/A   Clear
8:52 PM 4.5 °F - 0.5 °F 84% 29.97 in 7.0 mi Calm Calm - N/A   Scattered Clouds
9:12 PM 6.3 °F - 2.5 °F 84% 29.98 in 7.0 mi Calm Calm - N/A   Mostly Cloudy
9:32 PM 8.2 °F 1.6 °F 4.8 °F 86% 29.97 in 10.0 mi South 3.5 mph - N/A   Overcast
9:52 PM 8.4 °F - 4.5 °F 84% 29.98 in 10.0 mi Calm Calm - N/A   Overcast
10:13 PM 9.1 °F - 5.7 °F 86% 29.98 in 10.0 mi Calm Calm - N/A   Overcast
10:32 PM 10.4 °F - 7.2 °F 87% 29.98 in 10.0 mi Calm Calm - N/A   Overcast
10:52 PM 11.3 °F - 7.7 °F 85% 29.98 in 10.0 mi Calm Calm - N/A   Overcast
11:13 PM 12.6 °F - 9.3 °F 87% 29.99 in 10.0 mi Calm Calm - N/A   Overcast
11:32 PM 12.9 °F - 9.7 °F 87% 29.99 in 7.0 mi Calm Calm - N/A   Overcast
11:52 PM 13.6 °F - 10.4 °F 87% 30.00 in 10.0 mi Calm Calm - N/A   Overcast